Regional Weather Roundup
Issued by NWS

Home | Current Version | Previous Version | Graphics & Text | Print | Product List | Glossary On
Versions: 1 2 3 4 5 6 7 8 9 10 11 12 13 14 15 16 17 18 19 20 21 22 23 24 25 26 27 28 29 30 31 32 33 34 35 36 37 38 39 40 41 42 43 44 45 46 47 48 49 50
000
ASUS43 KOAX 280202
RWRNE

WEATHER ROUNDUP FOR NEBRASKA
NATIONAL WEATHER SERVICE OMAHA NE
800 PM CST FRI FEB 27 2015

NOTES: SATELLITE DATA IS BEING USED TO AUGMENT CLOUD COVER ABOVE
       12000 FEET.
       "FAIR" INDICATES FEW OR NO CLOUDS BELOW 12,000 FEET WITH NO
       SIGNIFICANT WEATHER AND/OR OBSTRUCTIONS TO VISIBILITY.

  * THESE STATIONS DO NOT REPORT WEATHER SUCH AS RAIN...SNOW OR FOG.

NEZ001>004-019>022-054>056-280300-
NEBRASKA PANHANDLE

CITY           SKY/WX    TMP DP  RH WIND       PRES   REMARKS
SCOTTSBLUFF    CLOUDY    19   9  65 S10       30.02R WCI   7
ALLIANCE       CLOUDY    17   7  64 S21G26    30.03S WCI   0
CHADRON        PTCLDY    19   8  62 S12       30.04R WCI   7
KIMBALL        LGT SNOW  13  10  87 S16       29.95R WCI  -4
SIDNEY         CLOUDY    14   8  77 S15       30.04S WCI  -1
$$

NEZ057>060-069>072-079>082-280300-
SOUTHWEST NEBRASKA

CITY           SKY/WX    TMP DP  RH WIND       PRES   REMARKS
NORTH PLATTE   CLOUDY    19   7  59 S14       30.23S WCI   6
IMPERIAL         N/A     17   5  59 S18       30.18R WCI   1
MCCOOK         CLOUDY    20   7  57 S15       30.28R WCI   6
$$

NEZ005>010-023>029-035>040-094-280300-
NORTH CENTRAL NEBRASKA

CITY           SKY/WX    TMP DP  RH WIND       PRES   REMARKS
VALENTINE      CLEAR     20   3  48 S14       30.19R WCI   7
AINSWORTH      CLEAR     17  -1  46 S10       30.22S WCI   4
BROKEN BOW     CLEAR     17  -2  43 S13G23    30.28R WCI   4
ORD            CLEAR     16  -6  37 SE10      30.33R WCI   4
$$

NEZ041-046>049-061>064-073>077-083>087-280300-
SOUTH CENTRAL NEBRASKA

CITY           SKY/WX    TMP DP  RH WIND       PRES   REMARKS
GRAND ISLAND   CLEAR     15  -1  49 S12       30.40R WCI   2
AURORA         CLEAR     15   1  52 S9        30.40S WCI   3
HASTINGS       PTCLDY    13  -3  49 S7        30.38S WCI   3
HEBRON         PTCLDY    13   0  58 S3        30.46S
HOLDREGE       PTCLDY    12  -4  49 SE7       30.34R WCI   2
KEARNEY *      CLEAR     12  -4  48 S10       30.36R WCI  -1
$$

NEZ011>018-030>034-042>045-280300-
NORTHEAST NEBRASKA

CITY           SKY/WX    TMP DP  RH WIND       PRES   REMARKS
NORFOLK        CLEAR     14   2  58 SE9       30.42R WCI   2
ALBION         CLEAR     14  -2  48 SE6       30.39R WCI   5
BLAIR          CLEAR     13   4  66 SE7       30.49S WCI   3
COLUMBUS *     CLEAR     12  -6  44 SE7       30.45S WCI   2
FREMONT        CLEAR     15   5  63 SE6       30.49S WCI   7
TEKAMAH        CLEAR     13   4  67 SE9       30.52R WCI   1
$$

NEZ050>053-065>068-078-088>093-280300-
SOUTHEAST NEBRASKA

CITY           SKY/WX    TMP DP  RH WIND       PRES   REMARKS
LINCOLN        CLEAR     14   1  56 S7        30.50R WCI   4
OMAHA EPPLEY   CLEAR     14   4  64 E5        30.54R WCI   6
BEATRICE       PTCLDY    15   1  51 SE3       30.48S
FALLS CITY     PTCLDY    12  -1  56 SE7       30.54S WCI   1
NEBRASKA CITY  FAIR      14  -5  42 SE3       30.52R
$$

NEZ044-045-051>053-067-280300-
OMAHA AREA

CITY           SKY/WX    TMP DP  RH WIND       PRES   REMARKS
OMAHA EPPLEY   CLEAR     14   4  64 E5        30.54R WCI   6
BLAIR          CLEAR     13   4  66 SE7       30.49S WCI   3
FREMONT        CLEAR     15   5  63 SE6       30.49S WCI   7
OFFUTT AFB     CLEAR     11   2  68 E5        30.52R WCI   2
WAHOO          FAIR      10   2  70 SE8       30.49S WCI  -2
$$


USA.gov is the U.S. government's official web portal to all federal, state and local government web resources and services.